www.pogodaiklimat.ru

Погода и климат >> Архив погоды >> Россия >> Магаданская область >> Сусуман


ПОГОДА в Сусумане

  • Прогноз погоды в Сусумане
  • Монитор погоды в Сусумане
  • Климат города

АРХИВ ПОГОДЫ в Сусумане

Время (UTC), дата Ветер
(напр.,м/с)
 
Видим.   Явления Облачность Т
(С)
Тd
(С)
f
(%)
Тe
(С)
Тes
(С)
Комфортность P
(гПа)
Po
(гПа)
Тmin
(С)
Tmax
(С)
R
(мм)
R24
(мм)
S
(см)
00 11.11 штиль 0 50 км ясно -35.3 -39.1 68 -35 -35 опасность
обморожения
1053.6 959.7 -39.5
03 11.11 штиль 0 50 км ясно -30.8 -36.1 60 -31 -30 опасность
обморожения
1050.7 958.7
06 11.11 Ю 1 50 км ясно -35.1 -39.2 66 -40 -40 опасность
обморожения
1051.6 958.0
09 11.11 штиль 0 50 км ясно -38.3 -42.1 67 -38 -38 опасность
обморожения
1053.3 958.3 -29.5
12 11.11 В 1 50 км ясно -39.2 -43.1 66 -44 -44 опасность
обморожения
1052.8 957.5
15 11.11 штиль 0 50 км ясно -38.9 -42.8 66 -39 -39 опасность
обморожения
1052.0 956.9
18 11.11 штиль 0 50 км ясно -38.4 -42.3 66 -38 -38 опасность
обморожения
1050.9 956.1
21 11.11 СВ 1 50 км ясно -38.0 -41.8 67 -43 -43 опасность
обморожения
1050.1 955.5 -39.7 36
00 12.11 штиль 0 50 км 3/0
[Ci fib]
-35.6 -39.3 69 -36 -35 опасность
обморожения
1048.1 954.6
03 12.11 штиль 0 50 км ясно -30.2 -36.2 56 -30 -30 1044.3 953.1
06 12.11 Ю 1 50 км ясно -31.7 -35.7 68 -36 -36 опасность
обморожения
1044.0 952.3
09 12.11 штиль 0 50 км ясно -33.3 -36.5 73 -33 -33 опасность
обморожения
1044.0 951.7 -27.6
12 12.11 СВ 1 50 км 6/0
[Ci fib]
-32.8 -36.0 73 -37 -37 опасность
обморожения
1043.0 950.9
15 12.11 СВ 1 50 км 8/0
[Ci fib]
-34.0 -37.1 73 -39 -39 опасность
обморожения
1042.7 950.3
18 12.11 штиль 0 50 км 6/0
[Ci fib]
-36.6 -40.0 71 -37 -37 опасность
обморожения
1043.1 949.7
21 12.11 штиль 0 50 км 4/0
[Ci fib]
-37.6 -41.2 69 -38 -38 опасность
обморожения
1044.3 950.4 -38.0 36
00 13.11 СВ 1 50 км 6/0
[Ci fib]
-33.3 -37.1 69 -38 -38 опасность
обморожения
1042.6 950.5
03 13.11 СВ 2 50 км 3/0
[Ci fib]
-28.5 -33.8 60 -36 -35 опасность
обморожения
1038.9 948.8
06 13.11 штиль 0 50 км 8/0
[Ac trans]
-29.8 -33.4 71 -30 -30 1038.7 948.2
09 13.11 штиль 0 50 км 3/0
[Ac trans]
-31.8 -34.9 74 -32 -32 опасность
обморожения
1039.2 947.8 -27.4
12 13.11 штиль 0 50 км 6/0
[Ac trans]
-31.9 -34.9 75 -32 -32 опасность
обморожения
1038.7 947.4
15 13.11 штиль 0 50 км 8/0
[Ac trans]
-27.4 -31.0 71 -27 -27 1036.0 946.5
18 13.11 штиль 0 50 км 8/0
[Ac trans]
-25.2 -29.0 70 -25 -25 1034.7 946.1
21 13.11 штиль 0 50 км 6/0
[Ac trans]
-29.3 -32.0 77 -29 -29 1036.6 946.4 -32.7 36
00 14.11 ЮЗ 1 50 км 8/0
[Ac trans]
-28.3 -31.1 77 -32 -32 опасность
обморожения
1036.3 946.4
03 14.11 Ю 1 50 км 9/0
[Ac As]
-23.0 -27.1 69 -26 -26 1033.8 946.0
06 14.11 ЮЗ 1 50 км 10/4 1000 м
[Sc Ac As]
-22.4 -25.5 76 -26 -26 1033.8 946.2
09 14.11 ЮЗ 1 50 км 10/3 1000 м
[Sc Ac As]
-22.0 -24.8 78 -25 -25 1034.1 946.6 -22.0
12 14.11 ЮЗ 2 10 км слабый снег 10/0
[Ac As]
-21.9 -24.3 81 -28 -28 1034.3 946.8
15 14.11 ЮЗ 1 10 км слабый снег 10/0
[Ac As]
-22.0 -24.0 84 -25 -25 1034.1 946.6
18 14.11 ЮЗ 1 10 км слабый снег 10/0
[Ac As]
-21.8 -23.6 85 -25 -25 1033.8 946.4
21 14.11 ЮЗ 2 10 км слабый снег 10/0
[As op]
-21.9 -23.8 85 -28 -28 1033.5 946.1 -22.1 0.3 36
00 15.11 Ю 1 500 м туман {снег} ?/? -22.1 -24.0 84 -25 -25 1033.4 945.9
03 15.11 Ю 1 50 км в посл. час туман 10/3 1000 м
[Sc Ac As]
-21.9 -23.8 85 -25 -25 1032.3 945.0
06 15.11 Ю 1 50 км {туман} 9/5 1000 м
[Sc Ac As]
-25.0 -27.3 81 -29 -29 1032.8 944.4
09 15.11 штиль 0 50 км 9/5 1000 м
[Sc Ac As Ci fib]
-27.3 -29.7 80 -27 -27 1033.3 944.1 -21.6
12 15.11 СВ 1 50 км 9/3 1000 м
[Sc Ac trans Cs]
-28.0 -30.5 79 -32 -32 опасность
обморожения
1032.7 943.3
15 15.11 С 1 50 км 9/0
[Ac As Cs]
-26.9 -29.4 79 -31 -31 опасность
обморожения
1031.2 942.3
18 15.11 штиль 0 50 км 9/0
[Ac As Cs]
-27.1 -29.6 79 -27 -27 1030.4 941.5
21 15.11 штиль 0 50 км 9/0
[Ac As Cs]
-26.7 -29.1 80 -27 -27 1029.5 940.8 -28.7 36
00 16.11 ЮЗ 1 10 км дымка 10/10 600 м
[Sc]
-26.7 -29.1 80 -30 -30 1028.5 939.9
03 16.11 ЮЗ 1 10 км дымка 10/10 570 м
[Sc]
-24.9 -27.1 82 -28 -28 1026.8 938.9
06 16.11 штиль 0 10 км дымка 10/10 500 м
[Sc]
-24.8 -27.0 82 -25 -25 1026.3 938.5
09 16.11 штиль 0 10 км дымка 10/10 630 м
[Sc]
-25.6 -27.9 81 -26 -26 1026.7 938.6 -24.5
12 16.11 СВ 1 10 км дымка 10/10 600 м
[Sc]
-27.0 -29.5 79 -31 -31 опасность
обморожения
1027.1 938.5
15 16.11 СВ 1 10 км дымка 10/10 660 м
[Sc]
-29.6 -32.3 77 -34 -34 опасность
обморожения
1028.0 938.4
18 16.11 СВ 1 50 км 8/8 930 м
[Sc]
-31.7 -34.6 75 -36 -36 опасность
обморожения
1028.8 938.4
21 16.11 С 1 50 км 3/0
[Ci fib]
-32.6 -35.7 74 -37 -37 опасность
обморожения
1029.2 938.5 -32.6 36
00 17.11 СВ 1 50 км 5/0
[Ci fib]
-32.1 -35.2 74 -36 -36 опасность
обморожения
1029.5 938.9 -33.7
03 17.11 СВ 1 50 км 8/0
[Ac trans Ci fib]
-27.8 -30.5 78 -32 -31 опасность
обморожения
1027.6 937.9
06 17.11 В 1 50 км 6/0
[Ci fib]
-31.7 -34.7 75 -36 -36 опасность
обморожения
1028.2 937.9
09 17.11 В 1 50 км 8/0
[Ci fib]
-34.8 -38.1 72 -39 -39 опасность
обморожения
1030.0 938.4 -27.3
12 17.11 штиль 0 50 км 4/0
[Ci fib]
-37.1 -40.6 70 -37 -37 опасность
обморожения
1031.3 938.7
15 17.11 СВ 1 50 км 4/0
[Ci fib]
-38.0 -41.6 69 -43 -43 опасность
обморожения
1031.7 938.8
18 17.11 штиль 0 50 км 4/0
[Ci fib]
-39.2 -43.0 67 -39 -39 опасность
обморожения
1031.9 938.5

 

Местоположение метеостанции Сусуман (Магаданская область, Россия): широта 62.78 долгота 148.10 высота над уровнем моря 655 м.

В архиве по умолчанию представлена погода в Сусумане за последнюю неделю. Архивные данные за месяц целиком и за предыдущие месяцы, начиная с января 2011 года, Вы можете получить, выбрав интересующий диапазон дат из раскрывающегося списка и нажав кнопку "Ввод!".


*Определитесь, кто Вы:
робот инопланетянин человек

Внимание! Время в таблицах - всемирное. Для получения местного времени необходимо прибавить поправку, которая в Сусумане равна 11 ч.

Смотрите также архив погоды в соседних городах и на ближайших метеорологических станциях:

Погода в Ягодной (Магаданская область, Россия) (82 км)
Погода в Озере Джека Лондона (Магаданская область, Россия) (106 км)
Погода в Колымской (Магаданская область, Россия) (107 км)
Погода в Совхозе Эльген (Магаданская область, Россия) (127 км)
Погода в Усть-Бохапче (Магаданская область, Россия) (149 км)
Погода в Делянкире (Якутия, Россия) (171 км)
Погода в Усть-Омчуге (Магаданская область, Россия) (201 км)
Погода в Среднекане (Магаданская область, Россия) (218 км)
Погода в Сеймчане (Магаданская область, Россия) (219 км)
Погода в Оймяконе (Якутия, Россия) (258 км)

Пояснения к столбцам:

Ветер - указаны скорость ветра в м/с - средняя за 10 мин, порывы в срок и между сроками (в фигурных скобках) и направление, откуда дует ветер: С - северный, СВ - северо-восточный, В - восточный, ЮВ - юго-восточный, Ю - южный, ЮЗ - юго-западный, З - западный, СЗ - северо-западный.
Видимость - горизонтальная дальность видимости в метрах или километрах. При видимости от 1 до 10 км при отсутствии осадков обычно наблюдается дымка, при ухудшении видимости до 1 км и менее - туман. В сухую погоду видимость может ухудшаться дымом, пылью или мглою.
Явления - указаны атмосферные явления, наблюдавшиеся в срок или в последний час перед сроком; фигурными скобками обозначены явления, наблюдавшиеся между сроками (за 1-3 часа до срока); квадратными скобками обозначены град или гололедные отложения с указанием их диаметра в мм.
Облачность - указаны через наклонную черту общая и нижняя облачность в баллах и высота нижней границы облаков в метрах; квадратными скобками обозначены формы облаков: Ci - перистые, Cs - перисто-слоистые, Cc - перисто-кучевые, Ac - высококучевые, As - высокослоистые, Sc - слоисто-кучевые, Ns - слоисто-дождевые, Cu - кучевые, Cb - кучево-дождевые. Подробнее классификацию облаков см. в Атласе облаков (PDF).
T - Температура воздуха - температура, измеренная на высоте 2 м над землей.
Td - Температура точки росы - температура, при понижении до которой содержащийся в воздухе водяной пар достигнет насыщения.
f - Относительная влажность воздуха - влажноcть воздуха, измеренная на высоте 2 м над землей.
Te - Эффективная температура - температура, которую ощущает одетый по сезону человек в тени. Характеристика душности погоды. При расчете учитывается влияние влажности воздуха и скорости ветра на теплоощущения человека.
Tes - Эффективная температура на солнце - температура, которую ощущает человек, с поправкой на солнечный нагрев. Характеристика знойности погоды. Зависит от высоты солнца над горизонтом, облачности и скорости ветра. Ночью, в пасмурную погоду, а также при ветре 12 м/с и более поправка равна нулю.
P - Атмосферное давление - приведенное к уровню моря атмосферное давление.
Po - Атмосферное давление - измеренное на уровне метеостанции атмосферное давление.
Tmin - Минимальная температура - минимум температуры воздуха на высоте 2 м над землей.
Tmax - Максимальная температура - максимум температуры воздуха на высоте 2 м над землей.
R - Количество осадков - Количество выпавших осадков за период времени, мм. При наведении курсора мыши на число - период времени, за который выпало указанное количество осадков.
R24 - Количество осадков - Количество выпавших осадков за 24 часа, мм.
S - Снежный покров - Высота снежного покрова, см. При наведении курсора мыши на число - состояние снежного покрова и степень покрытия местности в баллах.